Location: Lombard
(41.8800°N, 88.0080°W)
Time: 02:51:47
(UTC-05:00)

UWE-3 - Visible Passes

Search period start: 16 May 2022 00:00
Search period end: 26 May 2022 00:00
Orbit: 583 x 679 km, 97.7° (Epoch: 16 May)

Date Brightness Start Highest point End Pass type
(mag) Time Alt. Az. Time Alt. Az. Time Alt. Az.
16 May ? 04:01:09 10° NNE 04:05:17 46° E 04:09:18 10° S visible
17 May ? 04:21:40 10° NNE 04:25:58 80° E 04:30:09 10° S visible
18 May ? 03:08:22 10° ENE 03:09:50 11° E 03:11:15 10° ESE visible
18 May ? 04:42:23 10° N 04:46:37 59° WNW 04:50:41 10° SSW visible
19 May ? 03:27:36 10° NE 03:30:41 19° E 03:33:43 10° SE visible
20 May ? 03:47:40 10° NNE 03:51:29 32° E 03:55:13 10° SSE visible
21 May ? 04:08:02 10° NNE 04:12:13 56° E 04:16:16 10° S visible
22 May ? 04:28:37 10° N 04:32:52 84° WNW 04:37:00 10° SSW visible
23 May ? 03:14:37 10° ENE 03:16:47 14° E 03:18:56 10° ESE visible
23 May ? 04:49:23 10° N 04:53:27 48° WNW 04:57:25 10° SSW visible
24 May ? 03:34:15 10° NE 03:37:36 23° E 03:40:54 10° SSE visible
25 May ? 03:54:26 10° NNE 03:58:21 38° E 04:02:12 10° SSE visible
